Flag Weather past 2 weeks in Medicine Hat, Alberta, Canada

Now
28 °F

Overcast.


Feels Like: 25 °F
Forecast: -2 / 30 °F
Wind: 3 mph from Northwest

Location: Medicine Hat

Current Time: Nov 27, 2014 at 6:33:24 PM

Latest Report: Nov 27, 2014 at 5:00 PM


Visibility: 10 mi

Pressure: 29.81 "Hg

Humidity: 100%

Dew point: 28 °F

Location of Medicine HatLocation

Historic Weather in Medicine Hat — Graph

°F

Medicine Hat temperature yesterday

Maximum temperature yesterday: 30 °F (at 3:00 PM)
Minimum temperature yesterday: 23 °F (at 1:55 AM)
Average temperature yesterday: 26 °F

Past Weeks' High & Low Weather Summary

 TemperatureHumidityPressure
High45 °F (Nov 21, 2:00 PM)100% (Nov 17, 3:56 AM)30.81 "Hg (Nov 17, 3:56 AM)
Low-17 °F (Nov 14, 5:00 AM)53% (Nov 25, 1:00 AM)29.11 "Hg (Nov 22, 8:00 AM)
Average22 °F83%30.12 "Hg
* Reported Nov 12 5:00 PM — Nov 27 5:00 PM, Medicine Hat, Weather by CustomWeather, © 2014

Note: Actual official high and low records may vary slightly from our data, if they occured in-between our weather recording intervals... More about our weather records

Advertising

Medicine Hat weather history for previous 24 hours

 ConditionsComfort  
Time TempWeatherWind HumidityBarometerVisibility
5:00 PM
Nov 27
28 °FOvercast.3 mph100%29.81 "Hg10 mi
4:00 PM30 °FOvercast.7 mph93%29.82 "Hg15 mi
3:00 PM32 °FOvercast.5 mph87%29.81 "Hg15 mi
2:00 PM32 °FOvercast.No wind87%29.81 "Hg30 mi
1:00 PM32 °FOvercast.5 mph87%29.80 "Hg30 mi
12:00 PM32 °FBroken clouds.6 mph87%29.79 "Hg30 mi
11:00 AM30 °FBroken clouds.8 mph93%29.79 "Hg30 mi
10:00 AM30 °FBroken clouds.8 mph93%29.78 "Hg30 mi
9:00 AM28 °FMostly cloudy.3 mph100%29.79 "Hg30 mi
8:00 AM28 °FMostly cloudy.6 mph100%29.80 "Hg30 mi
7:00 AM28 °FLight mixture of precip. Mostly cloudy.9 mph100%29.83 "Hg4 mi
6:00 AM28 °FLight snow. Mostly cloudy.9 mph100%29.88 "Hg2 mi
5:00 AM28 °FLight snow. Mostly cloudy.10 mph100%29.90 "Hg1 mi
4:00 AM28 °FLight snow. Low clouds.8 mph100%29.98 "Hg1 mi
3:00 AM28 °FLight snow. Ice fog.7 mph100%30.03 "Hg1 mi
2:00 AM28 °FLight snow. Ice fog.8 mph100%30.05 "Hg1 mi
1:00 AM28 °FLight snow. Overcast.6 mph100%30.08 "Hg2 mi
12:51 AM28 °FLight snow. Overcast.6 mph100%30.09 "Hg2 mi
12:03 AM30 °FLight snow. Overcast.7 mph93%30.11 "Hg1 mi
11:03 PM
Nov 26
28 °FLight snow. Mostly cloudy.5 mph100%30.14 "Hg2 mi
10:03 PM30 °FLight snow. Overcast.10 mph93%30.16 "Hg9 mi
10:00 PM30 °FLight snow. Overcast.10 mph86%30.17 "Hg9 mi
9:03 PM28 °FOvercast.2 mph93%30.19 "Hg9 mi
8:00 PM28 °FLight snow. Mostly cloudy.2 mph93%30.23 "Hg10 mi
7:00 PM27 °FLight snow. Overcast.5 mph100%30.24 "Hg6 mi
6:00 PM28 °FLight snow. Overcast.5 mph93%30.26 "Hg4 mi
Weather by CustomWeather, © 2014

See weather overviewHow to use our weather pages